Location: Gleizolles
(44.4833°N, 6.7667°E)
Time: 00:36:39
(UTC+00:00)

Vanguard 2 Rocket - Pass Details

Date: 19 June 2024
Orbit: 555 x 3302 km, 32.9° (Epoch: 24 July)

Event Time Altitude Azimuth Distance (km) Brightness Sun altitude
Rises 05:47:38 0° 262° (W) 7,244 10.9 18.4°
Reaches altitude 10° 05:52:56 10° 258° (WSW) 6,080 10.6 19.4°
Maximum altitude 06:10:01 51° 191° (S) 2,858 9.5 22.3°
Drops below altitude 10° 06:20:44 10° 120° (ESE) 3,949 11.1 24.2°
Sets 06:23:25 0° 114° (ESE) 4,628 11.4 24.7°
